OSLO / GARDERMOEN current weather conditions

sailwx.info

Wind from 090 at 4 knots

Air temperature -1.0° C
Visibility: greater than 5.4 NM
Dewpoint -3.0° C
Present weather: Light snow.

Last reported at 2015-Jan-30 20:20 UTC.
Time now 2015-Jan-30 21:37 UTC

Location: N 60°12' E 011°05'.
View on Google Maps.

See reports from other nearby stations

  
Tides and Currents Weather Stations Pressure Air Temp Water Temp Dewpoint Dewpoint Depression Visibility Wind Speed Wind Dir Waves Ship Positions
date/time (UTC)wind fromknots sea level pressurealtimeterstation pressurevisibilityair tempwater tempwave heightnotes
2015-Jan-30 20:20 090 4 5.4-1.0 Light snow.
2015-Jan-30 19:50 5.4-1.0 Light snow.
2015-Jan-30 19:20 5.4-1.0 Light snow.
2015-Jan-30 18:50 110 4 5.4-1.0 Light snow.
2015-Jan-30 18:20 5.4-1.0
2015-Jan-30 17:50 110 4 5.4-1.0
2015-Jan-30 17:20 130 5 5.4-1.0
2015-Jan-30 16:50 140 4 5.4-1.0
2015-Jan-30 16:20 150 5 5.4-1.0
2015-Jan-30 15:50 110 5 5.4-1.0
2015-Jan-30 15:20 120 3 5.4-1.0
2015-Jan-30 14:50 130 5 5.4-1.0 Showers in the vicinity.
2015-Jan-30 14:20 100 3 5.4-1.0 Light snow showers.
2015-Jan-30 13:50 5.4-1.0
2015-Jan-30 13:20 5.4-1.0
2015-Jan-30 12:50 090 3 5.4-1.0
2015-Jan-30 12:20 5.4-2.0
2015-Jan-30 11:50 5.4-2.0 Showers in the vicinity.
2015-Jan-30 11:20 120 3 5.4-2.0 Showers in the vicinity.
2015-Jan-30 10:50 120 3 5.4-2.0 Showers in the vicinity.
2015-Jan-30 10:20 150 5 5.4-2.0
2015-Jan-30 09:50 160 7 5.4-2.0
2015-Jan-30 09:20 140 6 5.4-2.0
2015-Jan-30 08:50 130 7 5.4-2.0 Showers in the vicinity.
2015-Jan-30 08:20 120 5 5.4-2.0
2015-Jan-30 07:50 140 8 5.4-2.0 Showers in the vicinity.
2015-Jan-30 07:20 140 8 5.4-2.0
2015-Jan-30 06:50 150 6 5.4-2.0
2015-Jan-30 06:20 140 8 5.4-2.0
2015-Jan-30 05:50 150 7 5.4-1.0 Light snow.
2015-Jan-30 05:20 140 7 5.4-1.0
2015-Jan-30 04:50 150 8 5.4-1.0 Light snow.
2015-Jan-30 04:20 150 8 4.3-1.0 Light snow.
2015-Jan-30 03:50 150 9 5.4-1.0 Light snow rain.
2015-Jan-30 03:20 150 9 5.4-1.0 Light snow.
2015-Jan-30 02:50 160 11 5.4-1.0
2015-Jan-30 02:20 160 10 5.4-1.0
2015-Jan-30 01:50 160 11 5.4-0.0
2015-Jan-30 01:20 160 10 5.4-0.0 Light snow.
2015-Jan-30 00:50 160 10 2.7-0.0 Light snow.
2015-Jan-30 00:20 170 12 4.3-0.0 Light snow.
2015-Jan-29 23:50 160 10 4.9-0.0 Light snow.
2015-Jan-29 23:20 160 9 4.3-0.0 Light snow.
2015-Jan-29 22:50 170 8 5.4-0.0 Light snow showers.
2015-Jan-29 22:20 170 9 5.4-0.0
2015-Jan-29 21:50 170 8 5.4-0.0 Light snow showers.
2015-Jan-29 21:20 170 9 5.4-0.0 Light snow showers.
2015-Jan-29 20:50 180 8 5.4-0.0
2015-Jan-29 20:20 170 8 5.4-0.0
2015-Jan-29 19:50 180 8 5.4-0.0
2015-Jan-29 19:20 180 7 5.4-0.0
2015-Jan-29 18:50 180 9 5.4-0.0
2015-Jan-29 18:20 200 4 5.4-1.0
2015-Jan-29 17:50 180 5 5.4-1.0
2015-Jan-29 17:20 180 6 5.4-1.0
2015-Jan-29 16:50 180 8 -1.0
2015-Jan-29 16:20 180 6 5.4-0.0
2015-Jan-29 15:50 180 8 5.4-0.0
2015-Jan-29 15:20 180 10 5.4-0.0
2015-Jan-29 14:50 180 7 5.4-0.0
2015-Jan-29 14:20 190 8 5.4 1.0
2015-Jan-29 13:50 190 9 5.4-0.0
2015-Jan-29 13:20 190 10 5.4-0.0
2015-Jan-29 12:50 180 9 5.4-0.0
2015-Jan-29 12:20 170 7 5.4-0.0
2015-Jan-29 11:50 180 5 5.4-0.0
2015-Jan-29 11:20 190 6 5.4-0.0
2015-Jan-29 10:50 200 6 5.4-0.0
2015-Jan-29 10:20 180 6 5.4-0.0
2015-Jan-29 09:50 200 9 5.4-0.0
2015-Jan-29 09:20 160 7 5.4-0.0
2015-Jan-29 08:50 180 7 5.4-0.0
2015-Jan-29 08:20 190 5 5.4-0.0
2015-Jan-29 07:50 170 7 5.4-0.0
2015-Jan-29 07:20 180 8 5.4-0.0
2015-Jan-29 06:50 170 6 3.8-0.0
2015-Jan-29 06:20 170 5 5.4-0.0
2015-Jan-29 05:50 190 3 4.9-0.0
2015-Jan-29 05:20 190 6 2.7-0.0 Mist.
2015-Jan-29 04:50 170 7 2.7-0.0 Mist.
2015-Jan-29 04:20 180 6 4.9-0.0 Light snow.
2015-Jan-29 03:50 160 5 3.8-0.0 Light snow.
2015-Jan-29 03:20 150 6 3.2-0.0 Light snow.
2015-Jan-29 02:50 160 6 2.4-0.0 Light snow.
2015-Jan-29 02:20 160 6 4.3-0.0 Light snow.
2015-Jan-29 01:50 160 6 3.2-0.0 Light snow.
2015-Jan-29 01:20 160 7 3.2-0.0 Light snow.
2015-Jan-29 00:50 150 6 2.7-0.0 Light snow.
2015-Jan-29 00:20 160 6 3.2-0.0 Light snow.
2015-Jan-28 23:50 150 6 3.2-0.0 Light snow.
2015-Jan-28 22:50 150 6 2.2-0.0 Light snow.
2015-Jan-28 22:20 150 7 2.7-0.0 Light snow.
2015-Jan-28 21:50 150 7 3.2-0.0 Light snow.
2015-Jan-28 21:20 150 7 2.2-0.0 Light snow.